User: anonymous   Login
Location: *
(44.1392°N, 4.8079°E)
Time: 19:47:08
(UTC+00:00)
Language:

deb Agena D - Orbit

View from above orbital plane
View from above orbital plane
View from above satellite
View from above satellite

Ground track
Ground track

The orbit data is extracted from the following two-line orbital elements,

1 05446U 70025LE  22015.16155212  .00000898  00000-0  10624-2 0  9996
2 05446 100.4268  81.9844 0087098 345.5989  77.7682 13.69430679554280
Epoch (UTC): 15 January 2022 03:52:38
Eccentricity: 0.0087098
inclination: 100.4268°
perigee height: 937 km
apogee height: 1066 km
right ascension of ascending node: 81.9844°
argument of perigee: 345.5989°
revolutions per day: 13.69430679
mean anomaly at epoch: 77.7682°
orbit number at epoch: 55428

The dashed part of the orbit path shows where the satellite is in the earth's shadow,  

DLR